This is the latest recevied weather packets stored in our database for station/object KI5RAB. If no packets are shown the sender has not sent any weather packets the latest 10 day(s).
| Time | Temp. | Humidity | Pressure | Rain* | Wind** | Luminosity | Snow |
|---|---|---|---|---|---|---|---|
| 1777940698 | 26.11° C | 66% | 1011.8 hPa | 0 mm | - | 39 W/m² | - |
| 1777940396 | 26.67° C | 65% | 1012.2 hPa | 0 mm | - | 39 W/m² | - |
| 1777940094 | 26.67° C | 65% | 1012.2 hPa | 0 mm | - | 45 W/m² | - |
| 1777939790 | 26.67° C | 64% | 1012.2 hPa | 0 mm | - | 50 W/m² | - |
| 1777939489 | 27.22° C | 64% | 1012.3 hPa | 0 mm | - | 58 W/m² | - |
| 1777939185 | 27.22° C | 63% | 1012.3 hPa | 0 mm | - | 78 W/m² | - |
| 1777938882 | 27.22° C | 63% | 1012.4 hPa | 0 mm | - | 69 W/m² | - |
| 1777938579 | 26.67° C | 63% | 1012.7 hPa | 0 mm | - | 66 W/m² | - |
| 1777938276 | 27.22° C | 63% | 1012.4 hPa | 0 mm | - | 53 W/m² | - |
| 1777937972 | 27.22° C | 62% | 1012.6 hPa | 0 mm | - | 91 W/m² | - |
| 1777937668 | 26.67° C | 63% | 1012.7 hPa | 0 mm | - | 64 W/m² | - |
| 1777937365 | 27.22° C | 63% | 1012.8 hPa | 0 mm | - | 80 W/m² | - |
| 1777937062 | 27.22° C | 63% | 1012.6 hPa | 0 mm | - | 163 W/m² | - |
| 1777936759 | 27.78° C | 62% | 1012.9 hPa | 0 mm | - | 171 W/m² | - |
| 1777936455 | 27.78° C | 62% | 1012.8 hPa | 0 mm | - | 194 W/m² | - |
| 1777936152 | 27.78° C | 61% | 1012.9 hPa | 0 mm | - | 179 W/m² | - |
| 1777935849 | 28.33° C | 61% | 1012.8 hPa | 0 mm | - | 136 W/m² | - |
| 1777935548 | 27.78° C | 62% | 1013 hPa | 0 mm | - | 129 W/m² | - |
| 1777935244 | 27.78° C | 61% | 1013.1 hPa | 0 mm | - | 250 W/m² | - |
| 1777934942 | 28.33° C | 61% | 1013.2 hPa | 0 mm | - | 293 W/m² | - |
| 1777934638 | 28.33° C | 61% | 1013.2 hPa | 0 mm | - | 365 W/m² | - |
| 1777934335 | 27.78° C | 62% | 1013.3 hPa | 0 mm | - | 193 W/m² | - |
| 1777934031 | 27.22° C | 63% | 1013.4 hPa | 0 mm | - | 205 W/m² | - |
| 1777933727 | 27.22° C | 63% | 1013.6 hPa | 0 mm | - | 178 W/m² | - |
| 1777933424 | 27.22° C | 62% | 1013.4 hPa | 0 mm | - | 171 W/m² | - |
* Rain latest hour (hover to see other rain measurements)
** Current wind speed in m/s (hover to see current wind gust speed)